Location: UBC Liquid-Mirror Observatory
(49.2876°N, 122.5728°W)
Time: 22:47:22
(UTC-08:00)

Daily predictions for brighter satellites

Satellite Brightness Start Highest point End
(mag) Time Altitude Azimuth Time Altitude Azimuth Time Altitude Azimuth
Cosmos 2251 Rocket 4.5 16:45:00 10° N 16:49:34 27° NE 16:54:06 10° ESE
CSL-04 Debris 4.2 16:44:51 10° SSE 16:50:15 86° ENE 16:55:41 10° NNW
ERBS 3.1 16:47:12 10° W 16:50:29 44° NNW 16:53:47 10° NE
YAOGAN 1 3.2 16:48:14 10° SE 16:52:09 34° ENE 16:56:04 10° N
CSL-04 Rocket 3.9 16:47:11 10° SSE 16:52:38 80° WSW 16:58:12 10° NNW
ATLAS 2AS CENTAUR R/B 3.3 16:44:49 10° NW 16:52:50 54° NE 17:00:29 10° ESE
Meteor 1-27 Rocket 3.9 16:51:06 10° S 16:56:51 62° E 17:02:31 10° NNE
Cosmos 2344 4.3 16:50:16 10° WSW 16:58:00 59° NW 17:07:31 10° NE
ASTEX 1 3.6 16:54:43 10° N 16:59:46 84° W 17:04:46 10° S
SL-27 R/B 3.7 16:57:03 10° N 17:00:06 24° ENE 17:03:08 10° ESE
Cosmos 1378 Rocket 3.8 16:59:22 10° SSE 17:03:31 49° E 17:07:40 10° NNE
Cosmos 1782 3.6 17:00:26 10° SSW 17:04:23 54° WNW 17:08:22 10° N
Cosmos 1844 Rocket 3.9 17:00:27 10° SSE 17:04:46 23° ESE 17:09:07 10° NE
Cosmos 2181 Rocket 4.3 17:00:18 10° SSE 17:06:17 46° E 17:12:23 10° NNE
BREEZE-M DEB (TANK) 3.5 17:05:19 10° SSW 17:07:02 18° SSE 17:08:41 10° E
MOS 1 4.3 17:02:03 10° SSE 17:07:39 64° ENE 17:13:15 10° N
ISS -0.9 17:08:39 10° SSE 17:09:38 11° SE 17:10:36 10° ESE
Cosmos 1455 Rocket 4.1 17:06:27 10° NNE 17:10:05 25° ENE 17:13:44 10° SE
GEOS 3 Rocket 3.7 17:10:19 10° ESE 17:15:19 58° NE 17:20:22 10° NW
Cosmos 1048 Rocket 4.2 17:15:37 10° NNW 17:20:56 78° WSW 17:26:16 10° SSE
Cosmos 2341 Rocket 4.0 17:16:08 10° N 17:22:24 88° E 17:28:37 10° S
Nadezhda 1 Rocket 4.3 17:16:49 10° SSW 17:22:50 68° WNW 17:28:59 10° N
Cosmos 1295 Rocket 4.4 17:16:41 10° N 17:22:51 71° ENE 17:28:56 10° SSE
Cosmos 158 Rocket 4.0 17:18:00 10° NNW 17:23:26 80° ENE 17:28:45 10° SSE
COSMOS 2406 3.3 17:18:48 10° NNW 17:24:33 89° WSW 17:30:18 10° SSE
CORIOLIS 4.1 17:19:55 10° SSE 17:25:18 71° ENE 17:30:42 10° N
CZ-4 R/B 4.5 17:23:30 10° SSE 17:27:33 56° ENE 17:31:39 10° N
CZ-3B DEB 3.5 17:25:29 10° S 17:29:10 26° ESE 17:34:11 15° ENE
CZ-3A R/B 3.4 17:25:13 10° SW 17:29:51 74° SE 17:49:56 14° ENE
Cosmos 2278 Rocket 3.6 17:26:53 10° SE 17:30:30 18° E 17:31:58 16° E
Cosmos 1484 Rocket 3.2 17:30:00 10° SE 17:33:27 36° ENE 17:36:54 10° N
SL-16 R/B 4.5 17:29:04 10° N 17:33:52 24° NW 17:38:40 10° WSW
Meteor 1-5 Rocket 4.1 17:29:52 10° N 17:35:16 83° E 17:40:46 10° SSE
ATLAS CENTAUR R/B 3.5 17:33:31 10° W 17:37:07 21° NNW 17:40:35 10° NNE
CZ-2C R/B 2.5 17:32:44 10° SSE 17:37:42 84° WSW 17:42:51 10° NNW
Genesis I 4.3 17:35:45 10° NNW 17:39:09 26° NE 17:40:18 23° ENE
COSMOS 2487 4.4 17:36:43 10° N 17:38:00 15° NNE 17:38:00 15° NNE
SPOT 3 Rocket 3.7 17:34:56 10° S 17:40:07 77° WSW 17:45:20 10° NNW
Cosmos 1238 Rocket 3.1 17:41:39 10° SSE 17:43:57 27° ESE 17:43:57 27° ESE
CRYOSAT 2 4.3 17:39:44 10° N 17:44:41 81° E 17:49:35 10° S
Cosmos 1536 3.9 17:45:04 10° NNW 17:49:00 48° W 17:52:54 10° SSW
Cosmos 2082 Rocket 3.0 17:45:37 10° NNW 17:50:33 30° NE 17:52:45 23° E
Okean 1 4.2 17:50:02 10° SSE 17:53:32 29° E 17:53:40 29° E
IDEFIX/ARIANE 42P 3.0 17:49:22 10° S 17:54:31 64° WSW 17:59:42 10° NNW
COSMOS 2441 4.3 17:50:15 10° SSE 17:55:07 80° ENE 18:00:03 10° NNW
COSMO-SKYMED 1 3.0 17:53:45 23° NE 17:56:00 39° E 18:00:04 10° SSE
Cosmos 1544 Rocket 3.5 17:53:49 10° N 17:58:19 87° E 18:02:46 10° S
Cosmos 1833 Rocket 3.5 17:53:41 10° NNW 17:58:36 29° NE 17:59:58 27° ENE
USA 32 3.9 17:53:25 10° S 17:58:38 77° E 18:03:52 10° N
Cosmos 1500 3.7 17:56:11 10° N 17:59:44 36° ENE 17:59:53 36° E
Spot 2 Rocket 4.4 18:01:56 26° NE 18:01:56 26° NE 18:05:48 10° N
Cosmos 864 Rocket 4.4 17:56:14 10° N 18:02:31 78° E 18:08:49 10° SSE
SL-24 DEB 4.3 17:59:40 10° N 18:04:25 60° E 18:09:05 10° S
Cosmos 1975 Rocket 3.5 18:01:03 10° SSW 18:05:19 63° WNW 18:09:39 10° N
APEX 4.4 18:01:20 10° SW 18:07:50 72° WNW 18:11:45 18° NNE
SMAP 4.4 18:05:50 10° S 18:10:14 42° W 18:14:41 10° NNW
Meteor 1-18 Rocket 4.2 18:05:39 10° S 18:11:11 63° E 18:16:52 10° NNE
Cosmos 372 Rocket 4.2 18:06:56 10° SSW 18:12:11 74° WNW 18:16:37 15° NNE
CZ-4 R/B 3.7 18:10:22 10° SSW 18:13:57 27° W 18:17:33 10° NW
Thor Agena Rocket 4.0 18:09:57 10° N 18:15:04 61° WNW 18:20:12 10° SSW
MSX 4.3 18:12:19 10° S 18:18:01 62° WSW 18:23:45 10° NNW
USA 234 3.4 18:17:19 27° NE 18:21:09 70° NNW 18:27:38 10° WSW
Cosmos 1812 2.5 18:17:38 10° S 18:21:29 78° E 18:22:34 46° NNE
Cosmos 1536 Rocket 3.5 18:17:21 10° S 18:21:47 66° E 18:23:38 34° NNE
Cosmos 2263 Rocket 3.7 18:16:55 10° WSW 18:21:52 31° NW 18:26:50 10° NNE
METEOR-M 4.1 18:16:51 10° SE 18:22:02 55° ENE 18:27:16 10° N
Abrixas 2.8 18:19:12 10° W 18:21:48 63° WSW 18:21:48 63° WSW
Cosmos 1125 Rocket 4.5 18:17:05 10° SW 18:22:11 46° WNW 18:27:04 11° NNE
NOAA 12 4.0 18:19:24 10° SSE 18:24:39 66° ENE 18:29:53 10° N
Cosmos 494 Rocket 4.2 18:19:30 10° NNW 18:24:45 74° WSW 18:29:59 10° SSE
SKYMED 3 4.4 18:24:07 32° NNE 18:26:07 78° ESE 18:30:28 10° S
ERBS 4.1 18:25:07 10° WNW 18:27:33 22° NNW 18:27:33 22° NNW
NOSS 3-4 (A) 4.2 18:21:52 10° NW 18:28:20 43° NNE 18:30:10 36° ENE
NOSS 3-4 (C) 4.2 18:21:59 10° NW 18:28:26 42° NNE 18:30:15 36° ENE
Cosmos 1975 2.8 18:25:20 10° N 18:29:27 84° W 18:33:31 10° S
Meteor 2-14 Rocket 4.4 18:23:56 10° N 18:30:02 57° ENE 18:36:04 10° SSE
BREEZE M DEB (TANK) 3.0 18:28:54 10° W 18:32:11 84° S 18:34:57 36° ESE
Cosmos 2251 Rocket 4.2 18:26:58 10° NNW 18:32:14 57° WSW 18:37:26 10° S
Resurs 01 Rocket 3.7 18:37:47 15° N 18:37:47 15° N 18:38:37 10° N
SL-27 R/B 4.4 18:32:07 10° NW 18:35:25 32° WSW 18:38:42 10° SSW
ALOS 4.4 18:40:53 14° N 18:40:53 14° N 18:41:36 10° N
NOSS 3-3 (A) 4.3 18:33:15 10° S 18:39:09 46° ESE 18:39:54 44° E
NOSS 3-3 (C) 4.3 18:33:22 10° S 18:39:15 45° ESE 18:39:57 44° ESE
ATLAS 2AS CENTAUR R/B 3.7 18:36:11 10° NW 18:44:03 55° WSW 18:51:26 10° SSE
SKYMED 2 3.7 18:42:23 34° N 18:44:10 71° WNW 18:48:29 10° SSW
Meteor 2-21 Rocket 4.3 18:38:23 10° N 18:44:39 79° E 18:50:49 10° SSE
BREEZE-M DEB (TANK) 4.2 18:19:22 10° W 18:45:12 73° NNW 18:47:44 42° ENE
ISS -1.6 18:42:18 10° SW 18:44:12 30° SW 18:44:12 30° SW
Cosmos 1455 Rocket 4.5 18:43:59 10° NNW 18:48:03 38° W 18:52:07 10° SSW
Cosmos 1844 Rocket 3.0 18:42:37 10° SW 18:48:10 65° WNW 18:50:53 31° NNE
DMSP B5D1-3 4.4 18:48:46 34° NNE 18:51:04 87° WNW 18:56:14 10° SSW
Meteor 2-16 Rocket 4.3 18:44:57 10° N 18:51:05 73° E 18:57:08 10° SSE
Timation 2 Rocket 4.0 18:48:05 10° NNW 18:54:53 84° ENE 18:58:19 33° SE
Cosmos 1844 3.7 18:50:02 10° SW 18:55:36 74° WNW 18:57:20 45° NNE
Cosmos 1535 Rocket 4.4 18:49:18 10° N 18:55:41 70° ENE 19:01:55 10° SSE
BREEZE M DEB (TANK) 4.2 18:57:15 10° SW 19:01:08 25° S 19:01:08 25° S
Cosmos 1934 Rocket 4.1 18:56:36 10° N 19:01:38 54° NNE 19:01:38 54° NNE
FengYun 1-2 T 4.1 19:04:46 78° ENE 19:04:46 78° ENE 19:10:26 10° NNW
Cosmos 2278 Rocket 2.1 19:08:10 10° SSW 19:13:50 84° WNW 19:13:51 84° WNW
Cosmos 2239 Rocket 4.4 19:08:27 10° N 19:14:44 87° W 19:20:55 10° S
Meteor 1-13 Rocket 4.2 19:10:27 10° S 19:15:32 74° SSW 19:15:32 74° SSW
ATLAS CENTAUR R/B 4.2 19:16:34 10° NNW 19:17:04 11° NNW 19:17:04 11° NNW
Cosmos 1821 Rocket 3.9 19:16:27 10° NNW 19:22:36 80° W 19:24:16 50° S
Cosmos 2082 Rocket 2.6 19:29:28 10° NW 19:34:39 59° W 19:34:39 59° W
Cosmos 1833 Rocket 3.4 19:37:22 10° NW 19:41:42 49° WNW 19:41:42 49° WNW
CZ-3B DEB 3.3 19:57:10 10° WSW 20:02:59 76° NNW 20:03:15 75° N
USA 234 4.0 20:04:40 43° NNW 20:04:40 43° NNW 20:09:53 10° WNW
